This is the latest recevied weather packets stored in our database for station/object 5B4APJ-13. If no packets are shown the sender has not sent any weather packets the latest 10 day(s).
| Time | Temp. | Humidity | Pressure | Rain* | Wind** | Luminosity | Snow |
|---|---|---|---|---|---|---|---|
| 1777935722 | 11.67° C | 69% | 1010.5 hPa | 0 mm | 0.45 m/s, 228° | 0 W/m² | - |
| 1777935423 | 11.67° C | 70% | 1010.4 hPa | 0 mm | 0 m/s | 0 W/m² | - |
| 1777935123 | 11.11° C | 71% | 1010.6 hPa | 0 mm | 0 m/s | 0 W/m² | - |
| 1777934823 | 11.11° C | 72% | 1010.9 hPa | 0 mm | 0 m/s | 0 W/m² | - |
| 1777934523 | 11.11° C | 73% | 1010.8 hPa | 0 mm | 0.89 m/s, 252° | 0 W/m² | - |
| 1777934223 | 11.67° C | 71% | 1010.7 hPa | 0 mm | 0.89 m/s, 252° | 0 W/m² | - |
| 1777933923 | 11.67° C | 70% | 1010.9 hPa | 0 mm | 1.34 m/s, 237° | 0 W/m² | - |
| 1777933623 | 11.67° C | 70% | 1010.9 hPa | 0 mm | 0.45 m/s, 234° | 0 W/m² | - |
| 1777933323 | 11.67° C | 70% | 1010.9 hPa | 0 mm | 0.89 m/s, 180° | 0 W/m² | - |
| 1777933023 | 11.67° C | 69% | 1010.9 hPa | 0 mm | 0.89 m/s, 141° | 0 W/m² | - |
| 1777932723 | 11.67° C | 69% | 1011 hPa | 0 mm | 0 m/s | 0 W/m² | - |
| 1777932423 | 11.67° C | 69% | 1011.1 hPa | 0 mm | 0 m/s | 0 W/m² | - |
| 1777932123 | 11.67° C | 70% | 1011.1 hPa | 0 mm | 0.45 m/s, 181° | 0 W/m² | - |
| 1777931822 | 11.67° C | 70% | 1011.2 hPa | 0 mm | 0.89 m/s, 237° | 0 W/m² | - |
| 1777931524 | 11.67° C | 70% | 1011.2 hPa | 0 mm | 0.45 m/s, 190° | 0 W/m² | - |
| 1777931223 | 11.11° C | 71% | 1011.3 hPa | 0 mm | 0.89 m/s, 168° | 0 W/m² | - |
| 1777930923 | 11.11° C | 73% | 1011.1 hPa | 0 mm | 1.79 m/s, 183° | 0 W/m² | - |
| 1777930623 | 10.56° C | 74% | 1011.3 hPa | 0 mm | 1.79 m/s, 168° | 0 W/m² | - |
| 1777930323 | 10.56° C | 72% | 1011.4 hPa | 0 mm | 0 m/s | 0 W/m² | - |
| 1777930024 | 10.56° C | 72% | 1011.3 hPa | 0 mm | 0 m/s | 0 W/m² | - |
| 1777929723 | 10° C | 74% | 1011.5 hPa | 0 mm | 0.45 m/s, 100° | 0 W/m² | - |
| 1777929423 | 10° C | 76% | 1011.5 hPa | 0 mm | 0.45 m/s, 29° | 0 W/m² | - |
| 1777929123 | 10.56° C | 71% | 1011.4 hPa | 0 mm | 0 m/s | 0 W/m² | - |
| 1777928823 | 10.56° C | 71% | 1011.6 hPa | 0 mm | 0.45 m/s, 236° | 0 W/m² | - |
| 1777928523 | 10.56° C | 72% | 1011.5 hPa | 0 mm | 0 m/s | 0 W/m² | - |
* Rain latest hour (hover to see other rain measurements)
** Current wind speed in m/s (hover to see current wind gust speed)